Printer-friendly version

IAU Minor Planet Center

Minor Planet Center

MPEC 2006-B08 : 2004 UD10

The following Minor Planet Electronic Circular may be linked-to from your own Web pages, but must not otherwise be redistributed electronically.


Read MPEC 2006-B07 Read MPEC 2006-B09


M.P.E.C. 2006-B08                                Issued 2006 Jan. 19, 00:08 UT

     The Minor Planet Electronic Circulars contain information on unusual
         minor planets and routine data on comets.  They are published
   on behalf of Commission 20 of the International Astronomical Union by the
          Minor Planet Center, Smithsonian Astrophysical Observatory,
                          Cambridge, MA 02138, U.S.A.

                  Supported in part by the Brinson Foundation
                  Supported in part by the TABASGO Foundation
             Prepared using the Tamkin Foundation Computer Network

                              MPC@CFA.HARVARD.EDU
          URL http://cfa-www.harvard.edu/iau/mpc.html  ISSN 1523-6714

                                   2004 UD10

                           Revision to MPEC 2004-W13

Additional Observations:
     K04U10D .C2005 11 02.29049 03 09 12.97 +17 19 52.7          22.5 R EB008695
     K04U10D .C2005 11 02.35097 03 09 12.68 +17 19 51.6                 EB008695
     K04U10D .C2005 11 02.40350 03 09 12.42 +17 19 50.6                 EB008695
     K04U10D .C2005 12 02.20953 03 06 52.76 +17 10 51.6          22.5 R EB008695
     K04U10D .C2005 12 02.26218 03 06 52.53 +17 10 50.5                 EB008695
     K04U10D .C2005 12 02.31468 03 06 52.28 +17 10 49.8                 EB008695

Observer details:
695 Kitt Peak.  Observers L. H. Wasserman, E. R. Adams, R. L. Millis.
    Measurers L. H. Wasserman, R. L. Millis, R. L. Millis M. W. Buie.  4-m
    f/2.8 reflector + 8K CCD + prime-focus corrector.

Orbital elements:
2004 UD10
Epoch 2006 Mar. 6.0 TT = JDT 2453800.5                  MPC
M 145.12463              (2000.0)            P               Q
n   0.00353365     Peri.  207.41126     -0.13764096     +0.98922350
a  42.6894046      Node    54.71806     -0.89718425     -0.10316420
e   0.0411497      Incl.    3.50585     -0.41966104     -0.10389426
P 279              H    6.6           G   0.15           U   6
Residuals in seconds of arc
041018 695  0.2-  0.1-    041211 688  0.2-  0.1+    051202 695  0.0   0.2+
041018 695  0.0   0.1+    041211 688  0.2+  0.3-    051202 695  0.1+  0.0
041109 695  0.0   0.0     051102 695  0.1+  0.1-    051202 695  0.1-  0.2+
041109 695  0.2+  0.2+    051102 695  0.1+  0.1-
041110 695  0.2+  0.0     051102 695  0.1-  0.1-

Ephemeris:
2004 UD10                a,e,i = 42.69, 0.04, 4                  q = 40.933
Date    TT    R. A. (2000) Decl.     Delta      r     Elong.  Phase     V
2006 01 15    03 04.59   +17 02.3   43.742   44.150   113.9     1.2    23.2
2006 01 25    03 04.42   +17 01.8   43.907   44.151   103.7     1.2    23.2
2006 02 04    03 04.41   +17 01.9   44.080   44.151    93.5     1.3    23.2
2006 02 14    03 04.55   +17 02.7   44.254   44.152    83.4     1.3    23.2
2006 02 24    03 04.85   +17 04.2   44.424   44.152    73.4     1.2    23.2
2006 03 06    03 05.29   +17 06.2   44.587   44.153    63.5     1.2    23.2

Gareth V. Williams           (C) Copyright 2006 MPC           M.P.E.C. 2006-B08

Read MPEC 2006-B07 Read MPEC 2006-B09


Our Web policy. Index to the CBAT/MPC/ICQ pages.


Valid HTML 4.01!